Location: Aressy
(43.2833°N, 0.3167°W)
Time: 20:49:22
(UTC+00:00)

CZ-2C R/B - Pass Details

Date: 28 January 2021
Orbit: 785 x 870 km, 98.2° (Epoch: 03 March)

Event Time Altitude Azimuth Distance (km) Brightness Sun altitude
Exits shadow 18:33:47 - 27° (NNE) 2,806 5.1 -15.7°
Reaches altitude 10° 18:34:37 10° 30° (NNE) 2,514 4.8 -15.8°
Maximum altitude 18:39:43 35° 96° (E) 1,364 3.3 -16.8°
Drops below altitude 10° 18:44:49 10° 161° (SSE) 2,508 5.1 -17.7°
Sets 18:47:23 0° 170° (S) 3,439 5.9 -18.1°
